Theta_e
314 314 314 314 314 314 315 316 316 316 315 315 315 315 315 315 315 315 314 314 314 315 315 314 312 312 313 312 312 313 313 313 316 320 324 322 316 320 321 320 320 316 316 315 317 320 324 330 331 334 339 343 347 347 355 361 360 366 376 371 366 368 369 370 370 371 368 362 366 368 371 370 366 367 362 360 360 353 348 343 341 341 342 343 344 345 346 346
315 314 314 313 314 315 315 315 315 315 315 315 315 315 315 315 316 317 316 315 315 315 315 313 311 312 312 312 313 313 314 317 322 324 324 316 318 324 324 322 320 318 315 315 318 319 324 331 333 337 339 344 348 349 362 362 360 370 373 368 370 370 368 371 370 370 369 363 365 370 370 371 368 367 362 358 360 355 348 341 341 343 343 343 344 345 346 345
314 314 313 312 314 315 315 315 314 314 314 314 314 314 315 315 317 316 315 315 314 313 312 311 311 312 311 312 312 314 317 321 326 329 326 321 319 321 325 324 319 318 316 314 318 320 324 332 336 339 339 345 351 352 362 364 364 369 369 372 375 368 364 368 368 368 369 365 366 370 370 370 369 364 358 359 360 356 349 343 345 344 343 344 343 345 345 346
314 313 312 312 314 314 314 314 313 314 314 314 314 314 314 314 315 314 314 314 313 311 310 310 311 312 311 312 312 316 320 327 332 330 328 327 322 319 323 323 320 319 316 313 317 320 322 330 335 337 337 344 351 352 359 365 367 368 370 376 372 365 364 366 367 368 368 366 366 367 369 371 369 361 358 363 360 356 350 344 344 344 343 344 343 345 345 346
312 312 312 313 313 313 313 313 313 314 313 313 313 313 313 313 313 313 314 314 313 311 310 312 312 312 312 312 314 318 324 332 332 332 329 327 326 322 322 322 322 320 315 312 316 320 323 329 334 334 334 344 357 360 361 361 364 366 366 368 365 363 365 365 366 369 368 368 368 368 369 368 367 363 362 366 360 354 348 343 342 342 344 343 343 345 345 346
312 312 312 312 312 313 312 313 313 313 314 313 313 313 313 313 313 313 314 313 313 311 310 312 312 312 312 311 315 320 327 330 326 331 329 324 323 320 320 320 321 319 314 314 318 321 327 331 335 335 332 345 362 366 363 359 360 368 365 361 362 363 365 364 363 367 368 367 369 370 368 363 366 365 362 365 360 355 349 342 342 342 343 343 344 344 344 345
312 312 311 312 312 312 312 313 313 313 313 312 312 313 314 314 314 314 313 312 312 311 311 312 312 312 311 313 320 323 326 325 323 328 325 321 321 315 313 315 315 314 314 318 321 322 329 334 335 332 335 352 360 358 360 357 357 366 366 361 361 362 363 362 360 365 367 366 368 367 365 367 370 365 360 364 359 355 349 341 342 342 343 343 343 344 344 344
312 312 311 312 312 312 312 313 313 313 313 312 312 313 314 314 314 313 312 312 311 310 311 311 312 312 311 316 324 326 325 327 327 328 324 320 319 313 311 312 311 312 316 322 323 325 331 335 334 330 341 358 358 353 354 359 360 363 364 360 360 361 363 363 361 365 368 367 367 362 358 364 370 363 361 364 355 348 344 341 342 342 342 343 342 343 343 344
313 312 312 312 312 312 312 312 313 313 313 312 313 313 314 313 313 312 311 311 311 311 311 311 313 313 313 319 326 327 328 330 331 330 326 320 316 312 311 311 311 313 318 324 325 328 333 334 332 331 345 353 351 351 349 360 365 363 362 360 360 361 363 364 363 363 364 366 365 361 360 362 367 364 362 364 355 345 343 342 342 342 343 343 342 343 343 343
313 312 312 311 311 312 312 313 313 313 313 313 313 314 313 312 312 311 310 311 310 311 311 311 312 312 315 322 327 329 329 328 332 330 326 321 315 312 311 313 314 316 319 323 326 329 332 334 331 328 344 348 348 351 351 360 363 360 360 361 361 360 363 364 364 363 362 364 362 363 367 365 366 363 360 364 355 343 343 343 342 343 343 343 342 342 342 342
313 313 312 311 312 312 312 313 313 314 313 313 315 315 312 311 310 310 310 310 310 311 311 312 311 313 319 325 326 327 324 325 329 328 325 322 317 312 312 315 317 318 320 322 326 330 331 332 330 328 339 348 352 356 356 357 359 359 359 362 361 360 363 364 367 366 365 366 362 364 367 365 367 365 361 362 354 345 345 344 342 343 342 343 342 342 343 341
312 313 313 312 312 312 312 313 314 314 313 314 316 315 312 310 309 310 310 309 311 311 311 312 311 316 324 327 325 324 320 323 325 325 324 320 318 315 313 316 319 319 321 323 327 330 329 329 328 328 334 348 357 361 361 357 358 360 360 365 365 365 364 364 368 367 366 365 362 363 362 363 368 364 364 362 352 348 348 345 342 343 342 342 343 342 343 342
312 313 313 312 312 312 313 313 314 314 314 315 316 315 311 310 310 310 310 310 311 311 311 312 312 319 326 329 328 323 319 323 323 325 323 319 320 316 314 317 319 320 321 324 328 328 327 326 327 326 330 343 354 358 360 356 360 365 363 366 365 366 368 366 368 367 366 364 362 363 358 365 371 361 367 363 350 348 347 345 342 342 343 341 343 344 343 343
313 314 313 312 312 312 313 313 314 314 314 316 316 315 313 312 311 310 311 311 311 312 312 311 312 320 327 330 328 324 320 322 323 325 323 320 321 318 317 317 319 321 322 324 327 328 327 326 325 328 331 342 352 356 360 358 361 368 367 368 366 362 366 369 365 366 368 362 363 365 357 366 374 362 370 365 349 348 344 343 343 342 342 341 343 344 343 344
315 316 314 312 312 312 314 314 314 314 314 316 316 315 315 315 314 313 313 311 312 312 311 314 315 321 329 330 327 323 319 319 323 324 322 321 321 321 320 320 322 323 323 325 326 328 327 327 327 330 333 339 353 357 362 362 361 367 363 362 367 362 363 369 364 366 371 365 366 368 358 364 372 363 370 367 354 351 344 342 343 342 342 341 343 344 344 343
316 317 314 312 312 313 314 314 314 314 315 316 316 316 316 316 316 315 313 311 312 311 313 320 322 323 330 330 324 321 318 319 322 323 322 322 321 322 321 322 324 323 325 325 327 327 325 328 328 330 333 337 349 354 359 361 359 366 364 355 359 361 362 368 366 365 368 368 369 368 363 366 370 366 366 367 362 356 347 343 342 342 342 342 343 343 343 343
317 317 314 312 312 313 314 314 314 315 315 316 316 316 316 317 320 318 315 314 314 313 315 322 324 326 332 330 323 322 321 322 322 322 322 321 320 321 321 322 322 323 326 325 326 325 324 328 328 329 332 335 344 346 348 349 351 360 363 355 355 359 359 364 369 366 364 369 372 370 370 368 366 365 364 364 366 362 352 345 344 343 343 343 343 343 342 342
317 317 314 312 313 314 314 315 314 315 316 316 317 317 318 321 324 322 318 319 320 320 322 325 326 328 329 327 326 323 321 323 324 323 322 321 321 320 321 322 323 324 325 324 324 323 323 326 326 328 332 335 344 344 337 341 349 352 354 350 351 357 357 360 366 366 364 368 373 372 372 371 366 363 361 361 363 362 355 347 346 345 345 345 343 343 343 343
317 318 314 312 313 314 315 315 315 316 316 317 316 316 320 325 328 326 322 323 326 329 332 331 331 330 324 323 326 323 322 325 323 323 322 322 321 321 321 321 322 323 323 324 323 323 322 324 324 324 328 335 345 345 339 345 351 352 354 352 350 353 356 363 365 364 364 366 371 372 371 373 371 366 360 360 362 362 357 351 350 349 346 346 344 343 343 344
317 317 314 312 314 314 314 315 315 315 315 316 316 318 324 329 330 329 327 325 327 331 329 327 329 327 320 320 325 325 326 325 323 323 322 323 323 322 321 320 321 322 323 324 322 323 321 321 322 322 326 334 342 345 343 349 351 351 357 354 352 353 355 364 365 362 365 365 367 370 370 370 369 368 361 358 360 360 359 354 352 353 348 345 345 344 345 346
317 317 314 313 314 314 314 315 315 315 315 315 316 320 325 326 322 322 324 324 326 328 327 325 323 321 319 320 323 324 324 322 323 324 323 323 323 321 320 319 321 321 322 323 321 323 321 319 320 322 326 331 337 343 343 345 348 350 354 351 350 354 359 363 364 362 364 366 366 366 366 366 367 368 366 365 363 358 359 356 353 352 349 348 347 344 346 347
317 316 314 313 314 314 314 315 314 315 315 315 317 321 323 322 320 319 322 322 324 327 326 322 316 316 319 321 323 322 321 321 321 323 324 323 322 321 319 318 319 321 321 322 321 321 319 318 320 322 325 328 333 338 340 343 345 349 351 348 349 356 362 363 364 363 362 366 365 363 364 366 368 367 365 367 366 363 364 362 361 359 352 350 350 346 346 348
317 316 314 313 314 314 314 315 314 314 315 316 319 323 323 322 321 321 323 324 325 325 322 318 315 316 319 321 322 320 321 322 322 325 324 322 322 322 320 318 319 320 319 320 322 318 315 317 321 321 322 325 330 333 339 341 339 346 347 341 347 358 358 358 363 364 363 366 365 363 365 366 367 366 363 363 363 365 368 363 365 368 364 355 348 347 348 347
316 316 314 313 314 314 314 314 314 316 318 318 319 323 324 323 322 322 323 324 325 325 320 316 316 317 319 321 321 319 320 322 324 325 324 322 323 322 321 320 319 319 319 320 321 320 318 320 321 321 321 322 326 330 339 338 331 339 340 338 349 356 354 358 364 365 364 364 365 364 361 361 366 365 364 365 361 363 367 362 362 367 367 363 351 348 351 348
316 316 315 313 314 314 313 315 318 319 320 321 321 323 324 323 323 323 324 326 325 322 317 316 317 317 319 320 320 319 319 321 324 324 324 322 322 323 322 322 321 320 319 318 320 321 320 323 323 321 322 321 322 329 337 335 327 328 331 338 352 357 356 362 363 361 360 359 364 364 355 355 363 364 365 366 364 364 366 363 362 365 367 365 355 350 352 350
316 316 315 313 314 313 314 319 322 318 319 323 323 323 323 324 324 322 326 328 323 317 316 316 317 318 318 319 320 321 321 323 324 324 324 322 321 322 321 321 323 321 320 320 320 320 320 323 324 321 322 320 323 330 337 336 325 321 329 339 352 359 361 361 358 354 354 357 365 364 357 355 358 363 367 366 365 366 366 364 361 362 365 362 358 354 353 352
316 317 315 314 313 313 316 320 319 317 321 324 322 323 322 324 324 322 329 327 318 315 317 317 319 319 318 320 320 322 323 324 324 323 323 322 320 321 320 321 322 320 322 321 316 317 321 321 321 323 322 321 326 333 337 336 327 323 330 345 355 359 360 360 355 349 353 359 363 362 359 358 355 361 369 366 365 366 366 365 362 361 362 359 358 355 354 354
316 316 315 314 314 313 314 316 316 318 323 323 323 323 322 323 323 323 329 323 316 315 320 318 319 319 318 321 320 322 324 325 324 322 321 322 321 321 321 321 321 322 324 320 314 317 323 321 321 324 323 322 330 336 337 335 331 330 331 346 355 358 359 359 351 346 352 355 355 357 355 355 354 361 372 370 365 366 367 367 365 363 360 359 356 353 352 356
316 316 315 315 314 314 316 318 318 321 324 324 326 324 322 323 323 326 329 324 318 316 320 318 318 320 319 320 320 321 323 324 324 321 320 321 320 321 321 321 322 323 323 321 318 320 322 322 324 325 324 326 332 337 336 334 334 332 331 340 348 353 356 356 350 345 344 346 349 353 350 351 354 358 366 368 364 365 370 369 366 363 360 359 356 350 352 356
316 316 315 315 315 318 321 321 321 322 323 326 326 324 323 324 324 326 325 322 317 316 319 318 318 320 319 319 321 322 322 324 324 322 321 322 320 321 322 322 323 324 325 323 322 323 322 325 329 328 327 330 332 334 334 333 334 332 332 331 334 341 346 350 350 344 338 339 345 349 348 348 353 358 360 364 364 362 367 371 368 365 362 360 356 350 351 353
316 316 316 315 315 318 319 319 320 320 323 325 325 325 325 326 327 325 321 317 315 317 318 319 319 319 320 320 321 320 321 324 324 324 322 320 321 322 321 323 323 323 323 322 322 324 323 324 329 328 329 329 329 330 330 332 332 330 335 331 325 327 327 328 333 334 333 339 345 349 350 344 346 357 362 362 362 358 360 366 368 368 364 360 358 353 351 352
315 315 315 315 316 316 316 318 318 319 322 324 325 326 327 327 326 322 320 314 313 316 318 319 320 321 321 322 322 320 322 324 323 323 323 320 322 323 321 324 324 319 316 317 319 321 322 325 329 328 330 329 327 328 326 327 331 331 334 330 322 322 321 319 322 324 331 341 346 347 349 344 345 358 364 361 359 356 356 359 363 367 365 361 359 356 354 353
316 316 315 316 316 316 317 318 317 319 321 324 327 327 327 327 323 318 315 314 313 315 318 320 319 321 321 321 322 321 322 322 320 322 324 322 322 323 322 323 324 321 317 317 315 314 317 325 328 327 328 329 328 325 320 321 327 328 327 324 321 321 321 322 322 324 332 340 342 347 351 346 347 359 362 358 356 356 355 354 359 365 365 359 357 357 357 355
315 315 315 316 317 317 318 318 318 319 319 324 328 328 328 325 321 314 314 316 316 317 318 318 318 320 321 320 322 322 321 320 320 322 324 323 321 321 321 323 324 323 322 320 316 313 313 318 325 326 326 328 329 326 323 323 325 328 330 328 323 320 320 322 325 326 333 339 341 345 347 342 344 359 363 355 354 357 355 353 356 363 366 360 356 357 359 356
316 315 316 317 318 320 321 321 322 322 321 325 329 329 327 321 315 313 315 316 317 319 318 318 318 317 318 319 321 321 320 321 321 322 325 323 320 320 321 323 323 324 324 320 319 316 312 314 323 327 326 326 327 325 327 326 323 327 332 326 320 321 320 320 325 326 330 341 344 340 343 346 351 362 362 355 357 358 357 355 354 361 368 366 360 357 358 357
316 317 320 322 322 325 325 325 326 326 325 328 329 326 324 318 314 315 317 317 318 319 318 319 318 315 314 317 319 321 321 321 321 322 323 323 322 322 323 324 323 324 323 320 321 319 313 316 323 326 326 326 327 326 325 325 322 323 323 320 322 329 324 317 320 323 324 333 339 338 341 346 349 355 358 358 361 359 357 357 355 356 364 368 366 360 359 359
317 318 322 323 324 327 327 327 329 328 327 328 328 326 321 315 318 317 316 317 318 319 319 317 317 315 312 312 316 319 319 319 319 319 319 321 323 323 323 324 323 324 324 322 322 323 318 316 323 326 324 324 326 325 325 325 325 321 316 318 325 327 325 320 319 321 321 327 339 342 340 341 344 353 360 357 359 360 360 358 356 356 358 363 366 363 361 361
320 322 323 322 324 325 324 324 325 326 326 327 329 330 323 317 319 316 316 317 317 319 318 316 316 317 314 312 315 318 318 316 316 319 319 319 321 322 322 323 323 324 323 322 323 325 322 316 321 326 324 324 326 324 323 323 324 324 318 321 324 318 318 320 317 318 320 327 343 346 340 340 343 348 355 357 358 359 361 359 358 357 355 357 359 359 361 361
324 324 322 322 325 325 320 319 320 323 325 326 328 328 320 317 318 317 317 317 317 318 318 317 317 318 318 316 316 318 318 316 316 319 320 320 320 322 322 322 322 323 323 323 323 325 326 318 317 325 324 324 325 322 319 319 322 324 320 322 323 318 320 320 317 320 321 323 336 343 340 340 344 349 352 356 358 357 360 361 359 357 355 355 353 353 357 360
327 325 324 324 325 323 319 319 321 323 325 326 325 322 316 317 318 317 318 317 318 318 317 317 318 318 319 319 318 319 319 318 319 319 319 320 320 321 322 321 322 323 321 323 324 323 327 322 317 324 325 322 320 321 321 320 320 319 316 316 317 317 322 321 317 319 319 319 327 338 342 340 350 365 364 359 360 359 358 360 359 358 355 354 353 352 356 359
325 323 326 327 325 323 319 320 321 323 324 324 324 319 315 317 317 317 319 318 317 318 317 318 319 319 320 320 319 319 320 321 320 320 320 320 319 319 321 321 321 322 321 323 325 324 326 324 317 317 318 316 318 323 324 324 323 320 317 316 317 318 317 317 320 319 316 317 320 331 343 346 356 370 368 366 371 368 363 360 358 358 356 355 355 356 358 360
326 321 325 325 323 323 321 320 322 324 323 321 320 318 317 318 317 317 319 318 318 319 319 319 319 320 321 320 320 320 321 320 320 321 320 320 320 320 320 321 321 321 322 323 323 325 329 328 320 316 319 320 324 327 325 325 326 323 321 321 321 322 315 312 317 319 315 315 317 330 345 353 361 365 363 367 373 371 370 369 366 363 359 356 357 358 359 360
327 323 325 325 323 321 320 322 324 324 323 320 319 318 317 317 316 317 318 318 318 318 319 320 319 319 321 321 321 321 320 320 321 321 321 321 321 320 320 321 320 321 322 322 323 325 329 328 321 320 325 327 326 328 325 325 324 321 321 323 321 321 319 316 319 320 318 314 317 334 347 351 357 367 367 365 367 367 369 369 372 373 366 358 358 359 360 359
324 324 325 324 322 319 320 323 324 324 322 320 319 318 317 317 317 317 317 317 317 317 319 320 319 319 320 320 321 321 320 320 320 320 322 322 320 320 321 320 320 321 321 323 325 323 324 327 324 322 324 325 328 330 328 325 325 321 321 324 322 322 322 320 319 321 319 314 318 335 347 350 355 365 367 364 362 363 363 361 365 371 370 365 361 360 360 359
325 326 325 322 320 319 322 321 320 321 321 320 320 317 317 318 317 317 317 316 316 317 318 319 319 319 320 319 319 320 320 319 319 321 322 321 320 321 320 319 321 320 320 327 331 324 324 328 327 323 323 324 327 328 326 326 326 322 322 323 324 325 322 319 317 314 316 321 329 339 348 355 361 366 368 368 365 365 365 361 361 364 366 368 370 367 363 360
326 326 326 325 323 319 321 320 318 320 321 321 323 319 316 318 317 316 317 317 316 317 318 318 318 319 319 319 320 320 321 320 320 322 323 322 321 320 319 320 320 320 327 335 334 327 327 329 327 326 325 326 327 329 331 331 324 319 321 322 322 325 326 325 321 316 319 330 337 344 352 356 360 369 376 374 366 365 367 363 361 362 360 362 366 367 365 361
326 326 327 329 329 325 322 320 318 320 319 321 324 321 317 318 319 317 317 317 316 316 318 318 317 318 320 321 321 321 323 324 322 322 322 322 321 319 320 320 318 326 339 337 328 327 328 325 325 326 326 327 327 328 328 327 323 319 321 322 323 330 335 333 329 328 332 335 335 345 356 353 354 367 379 377 366 363 366 364 360 360 358 359 360 360 360 360
327 327 328 329 330 329 326 323 321 319 318 320 321 319 317 317 318 318 316 317 318 317 320 322 319 319 320 321 323 326 328 327 326 325 324 324 323 321 321 320 318 327 337 329 323 329 327 322 323 321 321 323 324 325 326 326 326 324 323 323 325 332 337 335 335 338 342 339 339 349 355 352 354 361 365 367 362 359 361 361 357 357 356 357 359 359 359 358
328 330 331 330 329 329 326 323 321 318 319 324 323 318 317 317 318 319 316 317 319 318 319 321 320 320 320 322 329 334 332 328 328 331 329 326 325 323 323 323 321 324 326 322 324 330 328 327 327 321 319 322 323 326 326 325 323 322 324 327 328 333 338 338 338 341 344 344 349 354 353 351 353 355 356 355 352 353 356 354 354 355 354 354 357 358 359 358
332 332 333 334 332 330 328 324 322 321 320 325 326 320 317 317 318 318 316 315 318 318 318 319 319 320 319 322 328 330 328 329 330 331 329 326 325 327 327 325 323 323 322 320 324 327 327 328 330 325 321 321 322 325 325 324 324 322 325 330 331 333 338 339 340 342 344 345 349 351 351 351 350 350 353 351 349 351 352 351 352 353 353 355 356 356 356 356
332 331 333 337 337 334 331 325 323 324 322 324 326 321 317 318 318 318 316 314 316 319 318 318 319 319 320 321 324 323 323 327 327 325 323 321 322 326 327 324 323 324 322 322 324 324 326 327 328 327 323 320 321 323 323 322 325 324 324 326 329 333 336 338 339 342 343 345 347 348 349 351 350 349 350 348 348 349 349 350 352 352 354 355 354 353 353 352
331 331 331 336 338 335 331 327 323 323 323 323 323 320 318 319 319 319 320 319 317 317 317 316 317 320 323 324 323 322 320 320 321 320 321 320 319 320 322 322 321 322 323 325 325 325 327 327 326 325 323 321 322 323 322 322 325 325 325 325 329 336 339 339 341 341 342 346 348 349 350 351 350 349 348 347 348 349 348 349 351 352 353 352 352 352 351 349
Wind_Speed
12 12 11 10 11 11 12 13 13 13 13 13 13 13 12 12 12 12 12 12 12 12 11 11 10 11 12 13 13 14 15 15 15 9 10 9 6 7 7 6 5 5 7 8 7 7 8 11 14 15 13 9 6 3 7 6 2 2 1 1 2 2 3 4 6 4 5 7 4 4 3 6 5 3 2 2 6 9 11 11 13 14 15 19 25 30 28 26
13 12 12 12 12 12 13 13 14 14 14 14 14 14 13 13 13 12 12 12 12 11 11 11 11 11 12 13 12 12 15 16 14 14 17 10 7 9 8 8 7 6 6 8 10 10 9 9 13 14 9 4 3 3 6 3 2 3 1 2 2 3 3 2 5 4 3 9 7 5 3 4 6 4 1 4 6 7 10 12 14 17 19 22 26 28 25 25
13 13 13 13 13 13 14 14 15 15 15 14 14 15 14 14 13 13 12 12 12 12 11 10 11 12 12 12 10 11 14 13 9 10 11 6 10 13 11 11 10 9 9 10 11 13 13 12 12 10 7 5 3 3 4 3 3 3 2 1 2 2 2 3 7 5 3 8 9 6 2 3 6 4 2 6 8 6 10 13 16 19 19 19 20 24 24 23
14 14 13 14 14 14 15 16 16 16 16 15 15 15 15 15 14 13 13 13 13 12 11 10 10 12 11 10 8 10 11 7 3 3 2 4 4 9 12 14 13 12 11 12 12 13 16 16 15 8 5 4 4 2 2 2 1 1 0 2 2 1 1 3 7 6 4 9 9 7 5 4 7 4 3 6 6 6 10 14 18 20 20 19 18 20 22 21
15 14 14 14 15 15 16 16 17 17 16 16 15 15 15 15 14 13 13 13 12 11 11 9 10 11 10 9 7 8 7 2 1 2 3 5 1 5 11 14 14 13 11 11 10 13 16 15 13 7 6 2 4 1 1 2 0 2 2 0 3 2 1 1 2 2 2 6 7 8 6 5 5 3 5 6 6 7 11 15 18 19 19 19 18 19 20 19
17 16 14 14 15 16 17 17 18 17 17 17 15 15 15 14 13 13 12 12 11 11 11 9 10 9 8 7 6 6 2 1 3 0 3 4 1 4 10 12 12 11 8 9 9 11 12 11 8 5 5 1 4 1 1 1 0 3 2 3 5 3 2 1 2 1 4 5 6 7 4 4 5 3 5 5 6 9 13 17 17 17 19 20 20 18 17 15
19 17 15 15 15 17 18 18 18 18 19 18 16 16 15 14 12 12 12 11 11 11 10 10 9 7 7 6 4 2 2 5 8 1 2 3 1 3 7 9 10 10 9 8 10 9 9 9 6 5 5 2 4 2 4 4 5 7 1 0 3 2 4 3 3 1 7 7 4 2 3 2 7 4 3 4 6 13 17 18 17 17 21 20 18 16 16 15
20 18 17 16 16 17 18 18 19 19 20 19 18 16 15 13 12 11 11 10 11 11 10 9 7 6 7 7 2 2 3 7 7 2 2 2 1 4 7 8 9 11 10 9 11 9 8 8 7 7 3 2 3 3 7 7 7 6 3 2 3 4 5 4 3 5 7 5 3 7 3 5 6 5 3 5 9 16 18 18 17 17 17 16 15 16 15 14
21 20 18 17 17 18 18 18 19 20 20 20 19 16 15 13 11 11 10 10 10 9 9 8 5 5 6 6 3 3 2 6 4 1 1 1 3 6 8 8 10 11 9 10 13 12 9 6 7 7 1 2 2 2 6 5 4 5 6 5 5 4 4 6 6 9 9 3 3 10 4 8 2 6 4 5 10 17 19 18 17 15 15 14 14 15 14 14
23 21 19 18 17 18 18 18 19 20 20 20 19 16 14 13 11 10 9 9 8 8 9 6 3 4 5 5 2 3 2 6 4 3 1 1 4 8 10 9 10 11 8 10 14 13 9 7 9 5 3 1 2 2 4 7 7 9 9 8 8 5 3 6 5 7 7 4 2 8 7 5 6 3 4 5 9 18 19 17 16 14 14 14 13 13 14 15
23 22 20 19 18 18 18 18 19 20 21 21 18 15 14 12 11 10 9 7 6 7 7 5 3 4 4 5 2 3 5 1 3 2 3 2 6 8 11 12 11 12 11 10 13 15 13 12 12 6 2 3 4 8 9 13 13 13 11 10 9 5 3 4 3 5 3 3 4 4 6 4 6 1 5 6 10 17 17 16 16 14 12 13 13 11 11 14
24 22 20 19 18 17 17 18 19 20 21 20 17 15 13 11 11 10 9 7 6 6 5 4 2 5 5 4 5 9 7 6 2 5 4 4 8 7 9 12 11 13 13 10 13 16 16 14 12 6 2 2 6 7 8 14 14 12 10 9 7 6 4 3 2 4 4 3 4 3 2 2 1 4 8 6 10 15 15 15 15 13 11 11 10 9 9 12
24 22 20 19 18 17 17 18 19 20 20 19 16 13 11 11 11 10 10 7 7 7 5 3 1 3 4 3 8 8 7 10 5 3 4 6 9 8 7 10 12 13 14 13 15 15 13 13 11 5 3 1 6 7 7 10 10 8 7 6 5 4 3 2 2 3 5 3 2 1 2 2 1 6 6 4 12 16 14 13 12 11 10 9 8 7 8 12
24 22 20 19 17 16 17 17 18 20 20 18 14 12 11 11 11 11 11 8 7 8 5 3 1 2 1 6 11 6 6 10 6 5 7 8 10 11 11 12 13 14 15 15 17 17 13 11 9 3 2 2 7 12 10 7 5 7 6 2 3 2 1 3 3 3 5 2 4 3 3 2 2 4 4 2 12 15 13 12 12 11 10 9 7 7 8 10
24 23 20 18 16 16 16 17 18 19 19 18 14 11 11 11 12 12 11 8 7 8 7 6 2 2 3 7 11 6 6 10 9 9 10 11 11 10 12 13 13 14 14 15 15 16 13 4 2 2 2 3 9 11 7 5 3 3 3 1 2 2 0 2 2 1 2 3 2 2 3 2 4 4 5 2 9 11 10 12 12 12 12 9 7 8 8 8
25 23 19 16 16 15 16 17 18 19 19 18 14 12 12 12 13 13 11 8 6 6 6 5 4 5 3 4 6 5 3 7 10 11 10 11 11 8 10 12 11 11 11 12 11 10 9 3 2 3 4 5 6 7 4 3 1 1 1 3 3 3 3 1 1 3 3 2 2 4 3 2 3 5 5 2 6 9 8 11 12 12 13 10 7 8 9 8
25 22 18 16 15 15 15 17 18 20 19 18 17 14 12 13 15 14 11 8 6 7 7 7 5 5 5 6 7 6 5 9 10 11 10 10 11 9 9 9 7 8 9 9 8 5 3 3 1 2 2 3 4 4 4 2 2 2 1 3 4 6 6 3 2 3 3 3 2 3 3 2 2 4 4 3 4 6 6 10 11 11 11 8 7 9 9 8
25 21 17 15 14 14 15 16 18 20 20 20 18 16 15 15 16 15 11 6 4 5 8 10 7 1 4 8 8 7 8 9 8 8 9 10 11 11 9 6 5 6 7 5 5 4 2 2 2 2 3 4 4 4 3 5 6 5 4 4 4 6 7 5 3 2 5 5 2 3 2 1 3 5 4 3 3 3 4 9 10 10 12 9 8 10 9 8
24 20 16 14 13 13 14 16 17 19 21 21 19 18 16 13 12 10 7 3 1 3 4 4 5 1 2 5 7 4 3 5 7 5 7 7 7 7 9 8 6 6 4 2 4 6 3 2 3 3 4 4 6 7 4 8 10 8 7 6 7 7 5 6 4 2 6 4 2 4 2 1 3 4 4 4 3 1 4 5 9 9 11 9 8 10 9 7
23 20 16 13 12 13 14 15 17 20 22 23 21 15 10 6 3 2 2 4 6 7 7 5 9 5 7 2 1 2 3 3 4 4 6 7 5 5 6 7 5 5 4 4 6 6 4 3 4 5 6 8 10 11 7 8 10 9 6 5 8 7 5 7 7 6 7 4 2 3 2 2 3 4 5 4 4 3 5 4 7 8 10 9 8 11 9 7
23 19 15 13 13 13 14 16 18 20 22 23 18 8 4 6 4 3 2 4 9 14 13 10 7 6 9 6 3 2 2 3 3 6 7 9 8 5 4 5 5 4 5 7 5 5 5 4 5 7 9 11 10 10 8 9 10 10 7 5 7 5 5 8 8 7 6 4 3 3 3 1 2 3 1 1 3 4 4 2 4 7 10 8 8 12 9 6
23 18 15 14 13 13 15 17 19 20 22 21 14 3 6 9 6 7 6 5 8 12 13 8 6 6 7 10 7 3 1 3 5 6 7 8 7 5 5 5 4 4 6 7 4 4 5 4 7 9 10 11 11 10 6 9 10 9 6 6 6 6 7 7 7 7 4 2 4 5 3 2 2 3 5 5 4 4 5 4 3 3 7 7 8 11 9 7
22 18 16 13 13 15 15 17 20 22 22 19 12 8 10 11 9 11 8 4 7 12 10 6 5 6 7 9 7 3 4 6 6 6 8 6 4 4 5 5 5 5 6 7 5 4 4 6 10 10 9 10 11 10 5 7 8 8 7 5 7 9 8 5 5 7 2 2 5 7 5 1 2 4 4 2 1 5 7 5 4 4 3 5 8 11 10 10
21 18 16 14 16 15 16 21 21 20 20 17 18 16 14 12 10 12 7 3 5 8 4 5 4 5 4 4 4 5 5 5 4 6 10 6 4 4 5 6 6 6 5 7 8 6 5 8 11 10 10 10 10 10 6 3 4 7 9 6 10 12 8 7 9 9 4 2 5 8 4 0 2 2 3 3 3 6 7 5 4 5 4 3 5 10 9 10
21 18 15 15 16 15 20 21 14 15 17 14 17 17 12 9 9 12 6 3 3 3 2 2 1 2 1 3 4 4 4 6 8 6 12 8 7 4 3 4 4 5 7 8 8 6 6 7 10 11 9 10 10 8 6 3 3 3 7 6 15 15 11 15 15 10 4 1 4 6 3 1 4 6 6 4 4 6 5 5 5 5 4 5 4 9 8 9
21 18 15 14 15 17 18 11 9 20 19 8 7 11 7 6 11 11 4 2 2 1 1 2 3 1 3 2 5 2 3 7 5 9 11 9 9 5 2 2 2 4 7 7 4 3 6 8 5 9 10 10 10 5 6 5 3 2 5 7 17 16 16 20 17 9 3 2 6 7 4 2 3 6 7 7 6 8 6 6 6 5 4 5 5 8 8 8
21 18 15 14 15 16 12 8 17 23 13 7 15 15 11 10 12 9 2 1 1 1 3 3 4 1 2 3 5 3 1 2 4 8 6 8 7 5 3 4 2 3 5 3 2 3 6 8 8 6 10 9 6 4 3 4 2 3 2 11 19 17 18 21 16 7 4 4 3 4 3 3 2 4 8 11 9 8 8 7 8 6 6 6 6 8 9 8
20 18 15 14 14 15 11 13 20 15 8 12 16 14 13 13 12 6 1 1 2 1 2 1 2 1 2 4 5 4 0 2 1 1 4 8 9 3 4 6 5 5 7 4 4 4 6 9 8 6 7 5 4 7 4 5 5 7 5 11 18 16 18 19 12 6 5 6 3 3 2 2 1 2 7 11 10 10 11 11 10 8 7 8 7 8 11 8
20 18 16 14 15 15 12 13 13 10 11 13 13 16 17 14 8 3 1 2 1 1 0 1 1 2 3 3 4 6 3 4 3 2 2 6 10 5 3 6 7 9 8 6 5 3 3 5 3 4 6 4 5 8 9 9 6 7 7 6 13 14 15 13 7 6 6 3 3 8 7 2 1 3 5 7 7 11 12 10 10 9 9 9 7 8 11 9
19 17 17 15 13 11 10 13 14 12 15 13 14 20 19 11 3 1 2 1 1 0 1 2 1 1 5 4 4 6 4 4 3 3 3 2 6 6 3 5 6 8 6 5 7 3 4 4 1 2 2 2 2 5 8 9 6 5 4 2 3 6 9 7 3 5 5 1 3 12 12 4 0 3 6 6 7 11 11 8 8 9 9 9 8 7 9 10
18 17 17 16 13 9 6 11 14 14 16 16 18 19 12 4 1 1 1 1 1 1 2 4 2 2 6 5 5 5 3 3 3 2 3 0 3 5 3 5 4 4 5 5 4 4 6 4 2 2 4 7 6 2 1 4 7 6 1 3 1 2 2 4 2 4 3 2 3 12 12 5 1 2 6 9 8 8 11 12 11 11 10 9 8 7 7 10
17 17 18 17 17 16 12 13 16 16 15 17 16 10 5 2 2 2 1 1 1 1 2 2 4 4 6 4 4 4 4 2 3 2 3 3 3 4 4 4 3 2 3 4 2 3 5 2 2 2 5 4 5 4 4 5 6 4 3 5 2 1 2 1 1 1 2 1 4 12 10 4 3 3 7 11 10 9 12 13 13 13 11 10 9 8 6 7
16 16 19 19 20 21 20 20 21 18 16 17 12 3 1 2 1 2 1 2 2 3 0 1 3 4 6 4 3 4 4 1 1 2 4 4 3 4 6 8 7 4 2 2 2 3 2 3 6 3 3 2 3 2 4 3 3 2 4 4 3 2 1 2 2 2 2 2 5 9 7 2 2 2 5 11 12 12 12 13 15 14 12 11 10 9 7 6
15 17 19 20 22 23 23 23 22 19 18 15 7 2 3 3 1 5 5 4 5 2 4 1 5 4 2 2 1 4 4 3 3 4 4 4 3 4 5 7 9 6 1 1 2 4 4 3 7 6 4 6 7 6 6 2 3 4 4 5 2 2 2 2 2 3 3 2 4 6 4 2 1 3 5 9 12 12 10 12 14 13 10 9 8 9 8 6
15 17 18 20 23 22 19 18 15 12 13 9 4 2 3 2 2 5 4 4 7 6 4 1 3 2 1 1 3 3 3 3 3 2 3 3 3 4 4 5 7 4 2 2 3 1 2 4 7 10 9 10 10 8 6 4 5 4 4 5 2 3 2 1 3 5 5 4 3 3 1 1 1 3 2 4 9 10 9 10 13 13 9 7 8 9 8 6
15 15 16 19 22 20 18 17 10 9 10 5 3 4 2 1 3 4 3 5 7 7 6 3 1 2 2 1 3 2 2 3 1 1 1 2 2 1 3 1 0 3 4 2 4 1 1 5 5 10 10 11 10 7 5 4 3 2 3 4 6 5 4 2 1 3 5 5 1 1 1 2 1 2 0 5 8 10 10 11 13 14 11 8 7 8 8 7
16 13 14 19 22 22 20 19 14 13 8 3 3 5 4 1 3 4 4 6 8 7 5 2 0 2 3 2 1 3 4 2 1 1 1 3 3 4 6 6 7 8 6 3 3 0 1 5 3 9 7 9 10 6 5 6 5 2 2 2 4 4 5 1 2 1 1 3 1 2 1 1 2 2 2 5 7 10 12 12 13 14 14 11 8 7 8 8
15 11 12 19 24 22 16 14 14 11 4 3 4 7 6 2 4 5 5 7 8 7 4 2 1 1 3 4 3 3 5 1 2 1 2 2 3 5 7 6 5 6 7 4 2 2 3 4 1 3 3 6 8 3 4 6 6 4 2 4 1 2 4 1 2 2 1 2 1 1 3 3 3 4 6 9 9 11 13 12 14 15 15 14 11 9 9 8
10 5 5 15 21 16 9 8 8 5 1 3 5 4 3 4 5 5 5 6 7 6 3 5 5 2 4 4 3 1 3 1 1 1 3 1 2 2 3 4 1 2 7 5 1 3 4 2 2 2 4 7 6 3 2 5 5 3 3 4 1 2 4 2 3 3 2 2 3 3 3 3 3 4 8 11 10 11 13 13 14 16 16 15 13 12 11 10
7 2 5 17 20 12 6 6 4 2 2 5 6 2 4 6 5 5 4 3 4 3 3 6 6 4 6 5 4 2 1 0 1 2 2 1 1 2 1 5 4 4 9 7 4 5 3 1 2 5 1 5 4 2 4 3 3 2 1 3 3 2 2 3 2 3 4 3 3 4 2 3 2 2 4 8 8 9 12 13 12 13 15 15 14 14 13 12
5 2 7 16 14 10 5 5 4 2 4 5 5 2 5 4 6 7 4 2 3 1 1 7 6 4 5 6 3 3 2 2 4 4 2 1 2 1 4 8 7 6 8 5 4 5 3 1 2 5 4 2 1 3 6 6 5 4 4 3 5 4 2 1 3 4 3 3 3 5 4 1 3 3 2 3 4 5 6 9 9 11 13 14 13 13 13 13
3 2 10 15 8 7 6 3 3 4 3 2 2 1 2 2 4 7 7 5 4 2 1 5 5 5 5 6 6 6 4 3 5 5 3 2 4 4 4 8 8 6 7 5 4 4 2 1 1 3 4 4 7 10 6 8 7 4 5 5 5 4 2 2 3 4 2 1 0 4 4 1 4 4 4 4 4 4 5 4 4 4 7 11 12 12 11 11
3 4 14 21 13 6 5 3 4 6 3 1 1 2 2 2 4 6 7 6 5 5 3 2 4 5 2 2 4 6 5 3 4 4 2 3 5 6 4 7 7 6 6 5 4 5 3 2 3 4 5 6 9 12 4 6 4 3 3 5 5 4 3 3 3 1 2 3 3 5 2 2 3 4 3 5 6 6 7 6 5 4 2 2 4 7 10 11
4 4 11 19 13 6 3 3 4 5 4 1 1 1 4 2 4 4 5 4 3 4 5 3 4 2 2 3 3 3 3 2 4 3 1 2 3 3 3 4 6 5 5 1 2 4 3 4 4 3 4 6 7 9 6 2 4 4 3 4 5 6 5 5 5 3 3 4 2 5 1 2 2 5 3 6 7 7 7 6 5 4 4 5 5 3 3 7
5 3 5 10 10 6 2 4 4 4 5 3 2 2 3 5 1 2 3 3 2 5 5 3 3 3 3 3 2 2 1 1 3 3 2 2 0 3 2 3 5 4 4 2 3 3 2 2 3 3 3 4 3 3 5 4 4 5 5 4 4 3 1 3 3 2 2 3 4 4 3 1 3 6 4 4 5 5 5 4 4 4 3 4 6 4 2 2
3 3 4 3 4 4 4 5 6 2 4 5 2 2 1 2 4 3 3 3 1 5 4 1 4 6 3 3 4 4 5 4 3 1 1 2 1 2 1 4 5 4 4 5 4 3 2 1 3 1 2 3 4 5 7 6 4 6 5 6 6 6 8 6 3 3 2 3 7 5 9 6 1 4 4 2 2 4 5 4 4 4 4 3 3 5 5 6
2 2 4 4 3 5 3 3 6 2 3 2 2 2 4 6 1 4 1 1 3 2 3 2 4 5 2 4 5 6 8 9 6 1 2 5 4 3 3 5 3 2 3 4 2 0 2 2 4 5 4 5 5 7 10 9 7 8 7 8 8 10 14 12 9 11 6 5 4 4 13 11 4 5 4 3 1 3 3 4 3 3 4 5 5 6 7 7
2 3 5 6 4 6 3 3 6 4 4 5 3 3 5 9 4 4 1 2 3 2 2 3 5 3 2 4 4 4 6 7 7 5 6 5 4 5 6 6 2 1 1 1 2 3 3 3 5 7 8 9 7 7 9 8 6 7 7 6 8 15 18 13 12 17 13 7 4 3 12 12 4 3 4 5 1 4 3 4 5 5 6 7 6 7 6 5
4 3 5 8 5 6 8 7 5 5 6 5 2 3 6 8 5 3 2 2 3 3 2 3 4 4 7 5 5 4 4 2 3 6 5 4 4 5 5 5 5 6 4 3 4 3 2 2 6 6 7 10 11 9 7 7 8 9 7 6 11 16 17 14 14 17 14 11 10 10 12 13 6 3 7 9 6 5 4 4 5 6 6 6 5 5 5 4
4 4 5 6 6 6 9 8 3 2 3 2 2 2 5 6 5 5 2 1 4 4 2 4 5 6 5 5 6 2 1 4 1 3 2 3 3 1 1 2 4 6 6 3 2 2 3 3 7 5 4 7 10 8 9 12 12 8 6 14 18 16 16 15 13 14 12 10 12 10 8 8 6 5 6 9 11 8 6 7 6 5 5 5 5 5 5 5
9 9 7 5 5 5 6 6 4 1 1 2 2 2 2 4 4 5 2 1 3 4 3 6 8 4 2 2 2 2 2 5 3 6 4 2 2 2 2 0 1 2 4 4 3 1 2 3 5 5 4 6 8 8 12 12 11 11 13 17 17 13 12 11 11 12 10 7 9 8 6 4 4 5 10 12 11 11 11 10 6 5 6 6 6 7 5 6
14 12 10 4 3 6 6 4 5 4 1 0 2 3 2 1 5 4 1 1 3 2 3 5 5 2 2 2 1 3 5 4 5 6 4 3 4 1 4 4 3 2 2 3 3 3 1 1 2 2 2 5 6 9 10 9 5 7 9 13 13 10 10 10 10 12 11 7 7 6 4 2 4 8 13 14 13 12 10 9 7 6 8 8 7 8 8 8
Wind_Direction
350 347 346 348 350 350 348 348 346 342 339 335 331 329 326 325 325 325 326 326 323 321 321 323 321 321 318 318 326 331 332 326 325 307 249 249 229 209 245 256 251 248 237 244 226 219 235 220 223 231 237 239 227 186 107 103 139 126 360 173 175 191 211 185 165 184 145 149 183 201 183 141 167 230 267 27 83 120 129 132 137 129 119 116 124 133 142 143
347 345 345 347 350 349 347 347 347 346 342 337 333 330 326 324 323 323 325 326 325 323 326 329 326 323 318 323 334 340 337 327 315 281 260 256 201 205 242 251 253 252 237 233 220 216 228 223 220 221 221 227 209 151 114 133 191 141 168 204 221 191 190 147 148 213 168 152 161 159 182 159 166 198 180 115 131 142 128 128 127 118 114 119 128 135 142 139
346 345 345 347 349 347 346 346 347 347 343 339 333 328 326 323 322 324 326 328 328 326 329 331 326 323 324 330 342 351 338 322 301 266 279 285 218 216 232 247 252 251 250 234 220 221 233 248 246 230 220 214 161 116 124 179 218 178 163 175 249 205 165 130 145 221 233 150 144 136 177 190 182 198 154 154 163 154 127 125 123 120 126 131 133 138 142 135
348 346 346 346 346 345 344 343 344 344 342 340 333 328 324 321 323 325 325 325 324 324 327 327 324 325 333 340 354 358 333 310 291 240 355 35 199 208 220 236 247 253 259 241 232 245 257 270 272 265 253 228 113 94 134 154 213 129 59 185 216 244 177 151 157 211 216 149 141 147 164 181 192 200 178 165 140 117 122 127 129 131 134 134 136 142 140 136
352 350 349 346 343 342 340 339 341 341 339 337 334 329 323 320 321 321 321 320 319 319 319 322 327 332 342 351 8 358 334 336 91 160 63 31 84 193 219 232 242 251 255 240 243 262 269 272 270 275 270 256 87 28 46 87 103 81 339 17 88 34 54 165 169 183 178 140 130 143 161 178 186 187 181 159 121 122 127 129 132 133 134 138 143 141 137 142
356 353 350 346 341 338 337 338 340 338 337 337 335 329 324 320 317 316 317 317 320 318 319 328 332 339 350 357 10 358 332 338 325 181 55 15 79 201 218 224 233 237 230 228 244 259 265 258 251 259 259 186 114 194 95 118 331 93 346 20 65 43 102 128 293 72 114 121 129 151 183 186 154 160 175 145 132 134 126 129 132 132 136 142 143 139 142 149
358 354 350 345 340 335 335 338 338 336 336 337 337 331 327 322 314 314 316 319 321 316 320 331 336 348 356 357 4 348 232 279 293 274 46 20 133 198 199 204 212 206 198 215 236 242 255 250 238 247 256 125 135 189 162 142 73 81 59 181 88 37 85 80 297 349 101 115 133 110 346 220 147 143 153 118 124 127 124 127 130 134 140 145 144 143 147 148
358 356 350 344 338 334 336 337 336 335 335 337 338 333 329 324 318 316 317 321 318 315 324 332 341 357 358 359 337 264 233 245 250 211 12 4 150 175 169 180 191 186 190 218 235 237 249 249 237 244 260 119 170 181 156 125 75 97 142 161 91 48 65 49 321 356 54 88 87 81 31 260 164 128 130 131 128 123 124 127 132 141 145 149 147 146 148 146
357 355 350 344 338 336 336 336 336 335 335 336 337 335 330 326 321 319 320 323 319 317 323 328 340 1 360 347 298 293 255 187 193 20 339 253 176 173 165 172 181 178 192 230 242 249 259 252 240 240 107 92 246 236 173 136 74 115 115 106 88 76 74 39 7 5 15 25 100 108 116 281 241 117 131 162 138 124 125 131 139 147 150 155 150 151 152 145
355 353 349 345 339 337 336 335 335 335 336 337 337 337 332 327 323 321 322 323 322 319 325 329 331 7 354 307 256 301 291 148 126 32 43 213 181 170 165 170 180 179 200 234 237 245 253 256 268 270 69 48 300 15 140 131 109 116 110 101 90 73 52 54 49 27 11 1 69 111 115 283 285 112 140 184 143 128 130 137 145 152 155 158 154 155 150 144
353 351 349 345 339 337 335 334 335 336 337 337 338 336 332 330 325 322 320 318 316 316 330 327 321 12 340 295 261 269 274 136 120 114 88 157 181 176 168 170 182 186 205 237 238 241 247 260 280 293 23 19 46 62 96 121 120 123 116 94 91 86 45 48 75 74 57 15 13 76 118 220 278 114 169 189 145 130 133 143 151 157 157 157 155 152 145 141
352 350 348 343 339 336 335 335 336 336 337 338 337 333 332 329 322 318 313 311 309 309 328 321 356 23 337 281 236 237 259 305 286 148 126 171 191 196 176 174 188 198 209 235 241 238 242 258 280 292 328 71 85 70 101 124 121 123 114 97 119 136 94 43 36 78 96 47 356 14 99 235 281 149 186 184 142 131 136 150 154 156 155 151 151 143 138 141
349 349 347 342 338 337 335 335 335 335 337 339 337 332 329 323 317 312 306 310 308 303 314 306 19 13 335 258 251 245 261 295 298 180 192 197 202 201 191 191 200 211 220 240 257 258 248 249 266 287 325 17 112 114 120 120 118 118 105 102 130 129 81 41 43 81 88 70 279 189 124 297 136 160 206 180 139 135 143 154 152 151 147 144 148 142 139 142
347 348 345 341 338 337 335 335 335 335 338 339 337 331 327 321 313 307 303 310 312 305 304 305 10 36 272 258 277 280 252 266 273 241 210 199 208 196 196 209 215 220 226 242 262 278 269 245 261 284 337 347 119 126 125 118 124 125 110 97 103 91 11 1 17 78 98 149 237 188 141 271 247 198 261 206 140 140 150 153 148 146 138 143 151 141 135 141
346 346 344 341 339 337 336 335 335 335 339 338 334 327 322 318 309 305 305 308 312 305 303 306 271 210 274 276 281 284 240 246 250 239 210 199 212 198 195 207 220 225 228 242 253 276 282 253 292 300 259 223 150 139 134 129 143 135 119 88 53 78 109 319 309 176 150 180 264 14 126 222 270 252 276 262 136 144 154 149 148 142 138 150 157 139 134 152
345 345 344 341 338 338 337 335 334 335 336 335 332 324 318 315 306 302 302 303 306 292 293 305 225 206 279 286 280 293 245 233 236 227 208 206 215 202 195 201 217 225 231 250 252 277 306 42 77 269 263 251 185 156 131 108 149 255 132 134 141 143 153 236 235 226 231 143 47 23 115 173 272 253 270 302 141 155 155 148 148 141 142 155 155 140 141 168
345 344 343 342 339 338 337 335 334 332 331 330 329 323 315 310 302 297 298 298 300 278 265 280 254 208 256 278 300 300 232 223 223 211 203 212 220 204 188 195 207 216 228 246 244 255 321 81 131 269 243 262 255 188 133 110 212 240 155 135 163 161 156 164 154 218 216 142 91 36 88 161 204 225 254 285 179 170 158 153 152 142 144 160 154 144 156 176
344 344 343 343 339 337 336 333 331 327 325 324 324 322 315 306 295 293 296 296 302 280 266 273 274 249 261 258 259 246 212 206 200 197 205 210 220 204 181 190 196 198 217 233 226 215 197 152 162 239 230 222 246 228 169 175 186 184 180 153 152 162 167 161 118 226 201 164 134 90 50 286 179 203 226 257 220 184 184 162 152 143 144 164 159 148 170 177
344 345 344 342 337 336 333 329 325 320 319 319 322 322 313 302 291 287 281 260 237 276 281 236 208 236 301 225 233 261 99 139 173 191 210 211 225 207 185 200 203 194 202 184 193 198 180 169 180 211 241 217 209 226 203 166 172 174 166 144 141 151 161 150 132 200 188 169 163 145 158 226 195 201 195 240 257 220 241 172 145 144 148 169 165 152 175 168
346 345 343 340 335 332 326 322 320 316 317 322 328 330 317 313 313 285 231 220 220 240 271 231 192 240 294 274 85 353 77 133 201 208 213 219 221 196 192 207 196 190 211 198 191 190 171 176 202 205 229 229 211 214 199 153 161 161 142 138 145 141 134 145 160 187 166 150 197 167 136 168 212 220 186 214 256 246 263 210 156 148 152 175 166 154 169 156
346 345 341 335 330 325 320 318 315 315 318 321 329 337 305 320 340 353 345 261 237 228 243 249 229 267 286 286 347 320 228 181 225 232 211 206 201 176 177 204 187 184 224 232 212 179 172 188 216 213 223 237 233 220 190 147 153 154 150 156 142 128 123 135 149 164 160 149 143 109 86 193 237 261 240 360 312 275 284 262 185 160 158 178 164 153 162 151
346 345 337 330 325 320 317 316 314 315 314 313 318 290 263 296 326 346 337 298 276 248 237 244 266 279 258 262 285 326 297 199 212 236 205 186 196 176 161 191 204 195 209 233 236 167 178 217 230 221 223 235 247 246 197 156 163 160 168 169 139 130 109 97 113 133 157 152 118 134 155 248 316 9 6 16 5 302 305 335 293 213 171 179 163 153 161 156
346 342 333 328 320 319 317 314 313 309 304 297 284 252 269 298 337 352 330 287 296 277 242 202 234 246 219 241 244 191 240 235 203 203 186 180 212 202 185 192 209 218 206 213 215 168 179 219 223 227 232 230 241 245 205 173 180 170 183 167 138 155 138 110 133 130 124 100 127 150 155 278 353 25 359 350 335 283 292 317 302 275 211 195 170 155 162 161
345 339 332 323 318 319 317 313 310 307 307 293 271 269 285 304 347 6 343 281 285 280 244 158 216 242 207 209 196 189 232 250 231 178 163 180 226 204 204 203 202 225 220 208 214 211 215 213 204 214 233 232 240 233 195 201 219 190 203 178 147 168 158 128 142 134 98 60 124 133 114 73 184 185 251 253 261 272 291 305 284 271 285 273 181 160 163 161
343 338 329 321 319 318 319 316 309 316 316 281 267 283 292 302 349 11 355 293 273 292 15 87 224 324 38 160 176 208 229 247 254 171 148 192 239 221 213 220 202 217 223 214 218 228 245 238 194 191 220 234 241 228 172 196 257 220 237 194 158 162 136 121 135 136 108 354 190 148 111 194 179 191 210 211 232 246 268 280 270 258 277 294 204 173 168 161
341 336 327 321 316 317 325 320 311 325 318 288 315 331 330 341 346 353 351 273 259 265 330 193 181 360 333 186 171 195 241 251 227 137 146 197 236 255 253 253 203 207 235 224 210 224 245 261 227 184 202 225 236 216 162 196 228 251 258 164 146 141 126 135 146 148 138 178 197 176 140 150 189 201 192 182 208 226 241 258 261 249 245 263 222 181 171 167
340 334 326 319 315 320 328 309 316 327 317 327 2 357 354 353 332 327 328 224 322 201 211 187 161 213 274 178 181 187 246 307 99 118 162 187 205 252 245 249 247 213 253 245 210 225 219 253 279 225 200 213 220 162 162 242 239 264 305 112 130 136 137 153 160 154 150 111 136 183 135 118 216 213 172 168 188 216 232 241 247 242 225 240 232 179 172 176
337 332 324 317 315 316 313 303 312 320 305 319 341 345 344 334 325 336 4 354 26 224 230 105 115 210 192 168 219 240 29 342 85 143 231 184 182 239 251 252 286 269 248 239 227 211 193 223 253 238 212 214 181 138 162 250 236 266 310 104 137 152 150 161 162 139 140 110 109 204 154 109 228 198 154 160 175 204 220 221 223 226 218 228 230 180 173 178
336 329 320 315 314 314 313 303 292 296 315 321 326 330 323 310 321 34 263 304 54 199 156 56 60 204 197 164 226 248 218 190 211 235 217 182 188 206 270 266 297 296 262 232 233 208 201 236 245 248 230 197 157 149 178 219 227 264 273 143 147 156 154 161 152 133 144 122 167 193 183 153 189 180 155 159 184 203 210 212 212 215 212 216 224 190 172 172
332 324 316 312 313 319 326 303 284 307 326 320 318 321 314 301 316 92 269 293 127 244 163 173 15 190 200 183 207 239 233 179 186 209 168 186 210 200 259 262 266 297 285 239 246 267 290 278 41 307 261 95 117 167 185 213 230 250 250 144 143 160 153 151 142 137 136 4 195 182 187 188 150 195 176 179 205 202 194 197 204 208 209 208 215 203 175 169
328 319 310 305 301 300 304 287 291 323 332 321 319 317 312 300 233 275 313 172 186 313 195 177 120 196 208 210 217 208 209 185 161 183 166 145 252 203 246 260 228 281 293 267 255 274 281 263 103 10 22 26 350 314 246 249 245 237 154 87 193 257 149 131 150 151 130 318 189 170 181 196 250 232 202 202 211 199 187 190 193 197 207 206 207 211 186 168
321 312 300 295 292 281 267 271 293 316 324 319 317 312 319 323 227 244 187 191 242 255 276 180 142 192 211 243 268 166 154 186 140 185 198 175 215 201 214 233 202 228 262 267 240 232 270 244 131 44 41 21 332 330 314 290 265 241 82 76 100 348 317 136 154 160 105 10 160 158 169 202 257 239 212 208 207 197 190 187 184 186 198 204 203 211 201 171
316 304 291 288 289 281 273 278 291 300 306 312 310 295 311 304 294 317 357 31 273 216 360 350 207 214 192 215 297 121 134 214 147 214 213 186 193 199 218 228 234 242 212 239 240 191 221 161 143 99 55 215 249 280 254 254 266 227 116 106 121 117 234 210 182 148 109 116 142 150 166 212 275 250 214 209 207 202 191 182 177 178 191 200 201 207 209 189
307 292 287 289 289 284 281 283 286 286 289 296 295 280 290 271 7 359 3 18 313 287 86 100 274 288 187 183 190 138 143 187 203 202 190 199 196 191 235 233 233 254 204 234 258 182 197 181 159 155 144 180 204 229 240 274 299 246 138 119 162 186 190 199 194 154 123 135 133 142 181 201 185 244 231 207 201 196 184 177 172 168 182 197 202 208 211 206
304 294 295 292 289 291 289 286 283 268 269 281 284 297 296 268 1 3 360 348 323 343 52 162 252 279 264 180 177 169 120 147 209 209 165 224 212 188 241 217 210 249 56 30 308 176 212 238 193 181 162 169 196 218 236 292 302 252 141 122 205 232 220 213 194 164 136 129 146 167 209 52 160 252 271 156 165 173 169 167 166 165 174 189 204 210 206 208
315 310 303 291 288 293 292 288 272 217 227 266 305 294 271 166 348 356 360 324 317 337 348 330 253 251 268 197 183 188 124 130 203 197 143 274 267 201 301 308 203 347 46 22 309 42 357 298 215 182 169 171 192 212 197 188 265 278 123 167 214 218 236 266 217 178 139 126 141 217 60 48 152 247 49 130 144 157 163 164 167 171 177 185 205 210 200 202
326 321 303 290 284 282 281 277 248 204 213 280 306 293 299 34 6 356 352 316 306 312 325 334 145 319 344 4 122 140 141 129 295 180 86 334 320 356 342 352 10 358 9 10 319 84 328 309 188 169 173 170 175 211 219 199 222 227 114 235 233 212 240 258 87 301 170 127 12 341 109 164 198 207 172 165 158 158 164 166 169 176 182 190 206 210 202 203
329 320 295 285 279 271 265 251 226 205 213 291 267 274 292 341 44 22 336 313 312 307 308 341 319 324 24 6 4 109 131 86 317 159 74 15 335 1 351 346 360 332 328 353 352 313 337 332 218 161 147 155 151 159 259 251 245 229 258 315 352 176 232 213 127 229 227 125 142 257 228 210 209 204 179 178 179 168 165 166 173 182 187 193 201 207 211 210
315 305 278 280 277 266 243 220 226 235 246 278 270 264 304 343 44 37 334 318 323 310 323 355 339 353 35 1 325 55 121 168 312 89 87 42 319 348 344 323 321 326 325 329 331 325 351 28 273 247 148 142 124 84 260 267 268 261 292 304 303 174 193 175 172 184 150 148 168 186 237 244 230 216 187 184 185 171 167 170 177 186 189 192 197 201 208 212
300 275 258 271 266 248 238 231 233 274 249 253 272 297 23 351 344 354 327 306 323 333 358 337 324 351 360 327 293 326 42 47 3 61 101 139 222 218 340 332 338 23 349 336 19 1 341 91 313 295 220 124 115 170 200 228 254 230 263 281 272 262 178 169 216 193 157 173 176 154 199 260 273 255 191 180 176 169 172 175 178 184 187 190 194 195 197 203
299 318 270 270 248 212 237 244 208 244 249 239 259 321 36 358 313 334 337 293 315 19 333 307 321 24 348 323 323 338 2 32 31 29 14 89 108 92 9 348 343 9 347 331 47 26 338 20 327 304 328 37 5 242 205 207 233 195 157 217 241 248 226 194 267 244 178 172 188 155 147 289 330 360 70 123 140 150 160 166 173 180 183 187 191 191 192 196
259 273 273 290 274 219 254 263 225 263 247 217 253 256 42 316 303 345 350 337 348 25 288 304 351 31 345 342 13 2 357 37 46 33 348 14 77 69 7 339 342 11 356 346 36 9 308 254 286 302 333 339 310 296 233 206 244 226 173 201 218 245 272 190 227 259 256 284 352 99 103 318 328 3 36 49 60 61 61 90 129 156 180 188 188 185 185 194
260 285 282 296 292 237 248 265 260 272 247 163 297 198 140 329 328 354 350 352 8 357 328 342 35 37 335 344 31 10 355 26 73 68 316 328 40 47 15 332 339 18 21 3 360 339 316 329 344 329 326 322 310 306 258 186 264 283 206 205 203 225 261 236 242 289 337 329 32 77 91 257 304 343 29 43 30 33 40 44 49 43 40 178 195 193 186 190
301 296 285 286 269 222 239 264 263 287 280 201 227 180 127 72 342 337 334 357 15 321 324 30 53 50 269 303 20 33 349 357 79 88 4 17 24 347 331 320 336 25 52 25 334 340 337 342 358 1 337 335 332 333 345 11 344 322 273 264 230 212 213 244 277 7 350 306 67 101 139 227 290 320 19 62 45 39 40 32 34 39 39 62 52 357 257 202
301 268 267 261 234 203 218 265 267 303 326 339 301 298 122 125 83 321 322 4 8 312 330 28 356 300 271 303 3 50 360 17 75 60 29 69 83 289 297 316 340 40 63 3 336 347 351 342 3 41 24 340 325 319 314 307 319 304 290 310 284 249 265 258 262 16 304 309 46 90 127 70 327 325 355 61 80 84 83 54 40 48 44 88 99 75 351 331
306 281 293 273 230 219 202 244 262 276 1 358 311 286 327 150 137 104 358 1 53 317 326 33 336 331 340 349 5 14 11 28 55 50 349 5 357 2 353 303 326 30 27 342 321 322 11 21 324 291 195 229 237 255 269 261 277 295 319 352 329 332 8 9 1 339 254 103 60 101 134 117 324 295 311 330 67 78 92 82 56 64 53 42 89 104 94 63
276 283 310 349 322 283 213 224 268 240 118 65 346 335 319 306 253 119 5 340 114 350 337 14 327 312 324 5 13 8 0 360 352 331 27 9 348 354 321 280 294 35 355 314 274 248 38 2 300 289 265 250 238 258 282 287 298 307 321 338 345 22 37 40 31 2 355 102 89 139 132 125 184 223 249 257 108 64 68 77 56 62 64 41 31 50 84 103
285 288 324 359 337 292 309 331 313 331 93 104 36 334 290 292 284 146 134 11 65 59 15 344 309 302 17 34 57 33 357 353 348 1 23 1 343 2 326 287 294 26 311 346 65 73 45 327 310 316 315 310 296 278 276 276 288 299 298 319 17 47 48 44 36 24 26 69 85 97 109 110 150 239 280 277 86 74 61 59 57 54 49 44 41 43 67 105
328 321 337 352 331 299 318 325 318 349 36 82 56 310 285 295 321 80 96 355 12 52 78 312 318 47 43 40 86 58 354 10 2 358 4 324 332 18 338 297 335 349 344 46 61 79 96 312 317 319 314 316 313 303 297 300 302 291 291 1 35 51 55 47 41 43 45 53 48 44 71 87 83 332 313 312 342 39 59 40 46 59 56 50 52 52 51 55
348 328 341 336 322 319 321 316 309 30 46 108 194 259 273 288 338 31 60 336 354 23 51 319 346 62 49 38 87 102 282 130 150 298 293 275 292 30 357 326 348 335 331 358 12 89 99 337 324 334 336 312 304 319 353 358 355 347 14 38 36 38 50 47 41 48 52 54 53 41 38 57 51 23 19 2 354 7 30 29 29 49 64 70 73 75 63 34
344 333 344 325 308 322 314 311 326 353 173 218 171 141 257 289 5 26 45 92 335 334 341 337 354 44 68 49 114 201 166 122 187 253 237 262 308 117 136 267 298 307 331 350 341 360 58 343 327 358 11 306 304 358 10 359 13 33 34 37 36 36 48 48 42 47 55 71 73 58 35 14 2 41 62 48 26 15 10 2 354 17 51 71 74 68 57 40
347 344 348 332 289 304 302 303 304 285 247 343 128 140 233 314 54 41 354 238 251 264 6 345 329 351 41 55 26 2 21 26 328 314 324 326 315 247 192 219 256 289 337 355 342 328 16 61 335 19 25 301 323 24 10 342 15 46 28 32 41 53 61 57 47 46 52 72 75 64 66 36 22 56 65 59 51 40 13 347 335 4 37 55 65 64 55 46